UAL2901 KPHX-KSFO

Flight info

Callsign UAL2901
Flight time 1h 42m
Altitude 40000
Route KEENS3 HRRBR CURIV J212 DECAS PMD AVE MAKRS SERFR SERFR4
Aircraft B772/H-SDE2E3FGHIJ5LORVWXY/LB1D1

Departure

Time 2026-05-08 00:45
Airport Phoenix Sky Harbor International Airport (KPHX)

Arrival

Time 2026-05-08 02:28
Airport San Francisco International Airport (KSFO)
Time Latitude Longitude Altitude Speed Heading
2026-05-08 00:21 33.43380 -112.00873 1128 ft 0 kts
2026-05-08 00:38 33.43369 -112.00873 1134 ft 4 kts
2026-05-08 00:38 33.43341 -112.00873 1134 ft 4 kts
2026-05-08 00:38 33.43317 -112.00873 1129 ft 3 kts
2026-05-08 00:39 33.43294 -112.00879 1134 ft 4 kts 50°
2026-05-08 00:39 33.43287 -112.00906 1129 ft 4 kts 92°
2026-05-08 00:39 33.43287 -112.00924 1129 ft 1 kts 90°
2026-05-08 00:39 33.43287 -112.00926 1129 ft 0 kts 90°
2026-05-08 00:41 33.43287 -112.00925 1119 ft 4 kts 90°
2026-05-08 00:41 33.43288 -112.00806 1134 ft 16 kts 90°
2026-05-08 00:42 33.43288 -112.00684 1134 ft 13 kts 91°
2026-05-08 00:42 33.43289 -112.00577 1138 ft 13 kts 92°
2026-05-08 00:42 33.43284 -112.00411 1132 ft 25 kts 91°
2026-05-08 00:42 33.43283 -112.00206 1133 ft 22 kts 90°
2026-05-08 00:43 33.43283 -112.00082 1123 ft 13 kts 89°
2026-05-08 00:43 33.43283 -111.99959 1119 ft 17 kts 90°
2026-05-08 00:43 33.43283 -111.99815 1120 ft 17 kts 90°
2026-05-08 00:43 33.43283 -111.99684 1119 ft 18 kts 90°
2026-05-08 00:44 33.43283 -111.99535 1123 ft 18 kts 90°
2026-05-08 00:44 33.43283 -111.99385 1123 ft 18 kts 90°
2026-05-08 00:44 33.43269 -111.99268 1128 ft 8 kts 135°
2026-05-08 00:44 33.43171 -111.99305 1117 ft 18 kts 220°
2026-05-08 00:45 33.43103 -111.99428 1122 ft 19 kts 266°
2026-05-08 00:45 33.43104 -111.99864 1128 ft 105 kts 270°
2026-05-08 00:45 33.43107 -112.01182 1187 ft 203 kts 269°
2026-05-08 00:45 33.43056 -112.02886 2659 ft 188 kts 270°
2026-05-08 00:46 33.43007 -112.04387 4048 ft 184 kts 270°
2026-05-08 00:46 33.42981 -112.06038 4493 ft 213 kts 270°
2026-05-08 00:46 33.42846 -112.07884 4861 ft 237 kts 257°
2026-05-08 00:46 33.42241 -112.09856 5128 ft 264 kts 246°
2026-05-08 00:47 33.41513 -112.11920 5877 ft 273 kts 248°
2026-05-08 00:47 33.40811 -112.14061 6719 ft 279 kts 249°
2026-05-08 00:47 33.40124 -112.16239 7624 ft 281 kts 249°
2026-05-08 00:47 33.39450 -112.18444 8450 ft 282 kts 252°
2026-05-08 00:48 33.39193 -112.20791 9114 ft 290 kts 273°
2026-05-08 00:48 33.39488 -112.23192 9871 ft 293 kts 280°
2026-05-08 00:48 33.39867 -112.25619 10474 ft 305 kts 281°
2026-05-08 00:48 33.40273 -112.28210 10855 ft 324 kts 281°
2026-05-08 00:49 33.40689 -112.30904 11600 ft 333 kts 281°
2026-05-08 00:49 33.41107 -112.33649 12651 ft 336 kts 282°
2026-05-08 00:49 33.41525 -112.36419 13693 ft 342 kts 282°
2026-05-08 00:49 33.41949 -112.39246 14641 ft 349 kts 282°
2026-05-08 00:50 33.42379 -112.42140 15579 ft 356 kts 282°
2026-05-08 00:50 33.42814 -112.45083 16518 ft 362 kts 282°
2026-05-08 00:50 33.43255 -112.48068 17432 ft 367 kts 282°
2026-05-08 00:50 33.43699 -112.51094 18273 ft 374 kts 283°
2026-05-08 00:51 33.44154 -112.54196 19095 ft 380 kts 283°
2026-05-08 00:51 33.44614 -112.57339 19893 ft 386 kts 283°
2026-05-08 00:51 33.45067 -112.60535 20647 ft 392 kts 280°
2026-05-08 00:51 33.45256 -112.63828 21360 ft 401 kts 273°
2026-05-08 00:52 33.45242 -112.67202 22047 ft 408 kts 271°
2026-05-08 00:52 33.45199 -112.70626 22751 ft 413 kts 272°
2026-05-08 00:52 33.45200 -112.74085 23474 ft 418 kts 273°
2026-05-08 00:52 33.45236 -112.77585 24144 ft 423 kts 274°
2026-05-08 00:53 33.45354 -112.81072 24789 ft 424 kts 279°
2026-05-08 00:53 33.45882 -112.84555 25414 ft 427 kts 286°
2026-05-08 00:53 33.46579 -112.88024 26102 ft 430 kts 288°
2026-05-08 00:53 33.47306 -112.91505 26798 ft 433 kts 288°
2026-05-08 00:54 33.48026 -112.95011 27463 ft 436 kts 288°
2026-05-08 00:54 33.48731 -112.98565 28131 ft 440 kts 287°
2026-05-08 00:54 33.49421 -113.02155 28765 ft 444 kts 287°
2026-05-08 00:54 33.50102 -113.05780 29391 ft 448 kts 287°
2026-05-08 00:55 33.50781 -113.09427 29992 ft 451 kts 287°
2026-05-08 00:55 33.51463 -113.13119 30583 ft 455 kts 287°
2026-05-08 00:55 33.52147 -113.16837 31137 ft 459 kts 287°
2026-05-08 00:55 33.52837 -113.20584 31647 ft 463 kts 287°
2026-05-08 00:56 33.53533 -113.24366 32159 ft 466 kts 287°
2026-05-08 00:56 33.54232 -113.28170 32649 ft 470 kts 287°
2026-05-08 00:56 33.54937 -113.32011 33122 ft 473 kts 287°
2026-05-08 00:56 33.55645 -113.35875 33578 ft 476 kts 287°
2026-05-08 00:57 33.56358 -113.39771 34021 ft 480 kts 287°
2026-05-08 00:57 33.57071 -113.43679 34439 ft 483 kts 287°
2026-05-08 00:57 33.57789 -113.47628 34875 ft 485 kts 287°
2026-05-08 00:57 33.58506 -113.51574 35387 ft 483 kts 287°
2026-05-08 00:58 33.59228 -113.55490 36020 ft 479 kts 287°
2026-05-08 00:58 33.59956 -113.59386 36546 ft 477 kts 287°
2026-05-08 00:58 33.60686 -113.63263 37025 ft 476 kts 287°
2026-05-08 00:58 33.61408 -113.67117 37662 ft 470 kts 286°
2026-05-08 00:59 33.62114 -113.70912 38276 ft 465 kts 286°
2026-05-08 00:59 33.62816 -113.74691 38720 ft 464 kts 286°
2026-05-08 00:59 33.63517 -113.78474 39077 ft 464 kts 286°
2026-05-08 00:59 33.64218 -113.82256 39423 ft 465 kts 285°
2026-05-08 01:00 33.64916 -113.86038 39782 ft 464 kts 285°
2026-05-08 01:00 33.66322 -113.93668 39874 ft 470 kts 285°
2026-05-08 01:01 33.67711 -114.01268 39853 ft 462 kts 285°
2026-05-08 01:01 33.69086 -114.08810 39862 ft 463 kts 285°
2026-05-08 01:02 33.70464 -114.16376 39863 ft 464 kts 285°
2026-05-08 01:02 33.71839 -114.23964 39862 ft 465 kts 285°
2026-05-08 01:03 33.73211 -114.31568 39866 ft 466 kts 285°
2026-05-08 01:03 33.74579 -114.39186 39859 ft 467 kts 285°
2026-05-08 01:04 33.75944 -114.46798 39850 ft 465 kts 285°
2026-05-08 01:04 33.77257 -114.54385 39843 ft 464 kts 282°
2026-05-08 01:05 33.77768 -114.60805 39843 ft 465 kts 277°
2026-05-08 01:05 33.78238 -114.69805 39838 ft 463 kts 277°
2026-05-08 01:06 33.78657 -114.77532 39841 ft 463 kts 277°
2026-05-08 01:06 33.79023 -114.84010 39842 ft 464 kts 277°
2026-05-08 01:07 33.79465 -114.91760 39843 ft 465 kts 277°
2026-05-08 01:07 33.79904 -114.99514 39852 ft 465 kts 277°
2026-05-08 01:08 33.80336 -115.07261 39854 ft 465 kts 277°
2026-05-08 01:08 33.80761 -115.15015 39850 ft 465 kts 277°
2026-05-08 01:09 33.81182 -115.22760 39848 ft 464 kts 277°
2026-05-08 01:09 33.81597 -115.30499 39860 ft 463 kts 277°
2026-05-08 01:10 33.82009 -115.38230 39862 ft 464 kts 277°
2026-05-08 01:10 33.82795 -115.45888 39874 ft 459 kts 286°
2026-05-08 01:11 33.84713 -115.53171 39867 ft 456 kts 295°
2026-05-08 01:11 33.87045 -115.60276 39870 ft 457 kts 295°
2026-05-08 01:12 33.89358 -115.67358 39882 ft 458 kts 295°
2026-05-08 01:12 33.91681 -115.74557 39880 ft 459 kts 294°
2026-05-08 01:13 33.93962 -115.81687 39883 ft 459 kts 294°
2026-05-08 01:13 33.96261 -115.88901 39892 ft 458 kts 294°
2026-05-08 01:14 33.98542 -115.96069 39906 ft 458 kts 294°
2026-05-08 01:14 34.00817 -116.03234 39911 ft 458 kts 294°
2026-05-08 01:15 34.03075 -116.10361 39923 ft 458 kts 294°
2026-05-08 01:15 34.05354 -116.17575 39933 ft 457 kts 294°
2026-05-08 01:16 34.07612 -116.24742 39947 ft 457 kts 294°
2026-05-08 01:16 34.09856 -116.31872 39965 ft 458 kts 294°
2026-05-08 01:17 34.12128 -116.39109 39967 ft 459 kts 294°
2026-05-08 01:17 34.14380 -116.46304 39985 ft 458 kts 294°
2026-05-08 01:18 34.16625 -116.53498 40005 ft 457 kts 294°
2026-05-08 01:18 34.18856 -116.60663 40087 ft 455 kts 294°
2026-05-08 01:19 34.21081 -116.67819 40134 ft 455 kts 293°
2026-05-08 01:19 34.23302 -116.74982 40184 ft 455 kts 293°
2026-05-08 01:20 34.25518 -116.82146 40247 ft 455 kts 293°
2026-05-08 01:20 34.27733 -116.89323 40252 ft 456 kts 293°
2026-05-08 01:21 34.29945 -116.96512 40248 ft 457 kts 293°
2026-05-08 01:21 34.32153 -117.03702 40210 ft 457 kts 293°
2026-05-08 01:22 34.34364 -117.10921 40146 ft 457 kts 292°
2026-05-08 01:22 34.36565 -117.18126 40103 ft 455 kts 292°
2026-05-08 01:23 34.38751 -117.25298 40077 ft 454 kts 292°
2026-05-08 01:23 34.40910 -117.32396 40032 ft 453 kts 292°
2026-05-08 01:24 34.43082 -117.39558 40020 ft 453 kts 292°
2026-05-08 01:24 34.45251 -117.46727 40028 ft 453 kts 292°
2026-05-08 01:25 34.47419 -117.53909 40031 ft 454 kts 292°
2026-05-08 01:25 34.49574 -117.61066 40025 ft 455 kts 292°
2026-05-08 01:26 34.51744 -117.68291 40019 ft 455 kts 292°
2026-05-08 01:26 34.53905 -117.75503 40020 ft 455 kts 292°
2026-05-08 01:27 34.56057 -117.82705 40028 ft 454 kts 292°
2026-05-08 01:27 34.58206 -117.89914 40028 ft 454 kts 292°
2026-05-08 01:28 34.60349 -117.97119 40016 ft 454 kts 292°
2026-05-08 01:28 34.62524 -118.04299 40022 ft 452 kts 295°
2026-05-08 01:29 34.65495 -118.10993 40027 ft 449 kts 305°
2026-05-08 01:29 34.68961 -118.17292 40031 ft 449 kts 306°
2026-05-08 01:30 34.72431 -118.23593 40019 ft 449 kts 305°
2026-05-08 01:30 34.75903 -118.29962 40018 ft 449 kts 305°
2026-05-08 01:31 34.79334 -118.36299 40032 ft 448 kts 305°
2026-05-08 01:31 34.82725 -118.42581 40052 ft 447 kts 305°
2026-05-08 01:32 34.86135 -118.48907 40092 ft 447 kts 305°
2026-05-08 01:32 34.89541 -118.55236 40119 ft 447 kts 304°
2026-05-08 01:33 34.92946 -118.61576 40134 ft 447 kts 304°
2026-05-08 01:33 34.96350 -118.67923 40146 ft 448 kts 304°
2026-05-08 01:34 34.99757 -118.74289 40137 ft 448 kts 304°
2026-05-08 01:34 35.03160 -118.80659 40136 ft 447 kts 304°
2026-05-08 01:35 35.06550 -118.87017 40131 ft 447 kts 304°
2026-05-08 01:35 35.09936 -118.93376 40116 ft 446 kts 304°
2026-05-08 01:36 35.13313 -118.99731 40100 ft 446 kts 304°
2026-05-08 01:36 35.16690 -119.06098 40048 ft 447 kts 304°
2026-05-08 01:37 35.20063 -119.12470 40045 ft 446 kts 304°
2026-05-08 01:37 35.23432 -119.18844 40033 ft 446 kts 304°
2026-05-08 01:38 35.26796 -119.25221 40022 ft 446 kts 304°
2026-05-08 01:38 35.30157 -119.31603 40020 ft 446 kts 304°
2026-05-08 01:39 35.33508 -119.37980 40030 ft 446 kts 303°
2026-05-08 01:39 35.36863 -119.44375 40026 ft 446 kts 303°
2026-05-08 01:40 35.40219 -119.50784 40030 ft 447 kts 303°
2026-05-08 01:40 35.43572 -119.57198 40028 ft 447 kts 303°
2026-05-08 01:41 35.46923 -119.63621 40018 ft 447 kts 303°
2026-05-08 01:41 35.50277 -119.70061 40009 ft 448 kts 303°
2026-05-08 01:42 35.53625 -119.76504 40009 ft 448 kts 303°
2026-05-08 01:42 35.56969 -119.82950 40009 ft 447 kts 303°
2026-05-08 01:43 35.60309 -119.89398 40020 ft 447 kts 303°
2026-05-08 01:43 35.63446 -119.95935 40014 ft 448 kts 294°
2026-05-08 01:44 35.65301 -120.03234 40029 ft 449 kts 280°
2026-05-08 01:44 35.66054 -120.10862 40037 ft 450 kts 277°
2026-05-08 01:45 35.66747 -120.18511 40050 ft 450 kts 277°
2026-05-08 01:45 35.67494 -120.26157 40045 ft 450 kts 277°
2026-05-08 01:46 35.68550 -120.33732 40038 ft 449 kts 286°
2026-05-08 01:46 35.70696 -120.40914 40039 ft 447 kts 295°
2026-05-08 01:47 35.71121 -120.42032 40057 ft 447 kts 296°
2026-05-08 01:51 35.73003 -120.46893 40050 ft 447 kts 296°
2026-05-08 01:52 35.75682 -120.53788 40045 ft 446 kts 296°
2026-05-08 01:52 35.78332 -120.60696 40047 ft 446 kts 295°
2026-05-08 01:53 35.79654 -120.64167 39511 ft 450 kts 295°
2026-05-08 01:53 35.80975 -120.67648 38961 ft 447 kts 295°
2026-05-08 01:53 35.82282 -120.71098 38533 ft 442 kts 295°
2026-05-08 01:53 35.83573 -120.74511 38096 ft 437 kts 295°
2026-05-08 01:54 35.84849 -120.77886 37649 ft 433 kts 295°
2026-05-08 01:54 35.86115 -120.81237 37214 ft 429 kts 295°
2026-05-08 01:54 35.87366 -120.84552 36786 ft 424 kts 295°
2026-05-08 01:54 35.88603 -120.87835 36358 ft 420 kts 295°
2026-05-08 01:55 35.89827 -120.91086 35932 ft 417 kts 295°
2026-05-08 01:55 35.91043 -120.94318 35487 ft 414 kts 295°
2026-05-08 01:55 35.92250 -120.97527 35052 ft 411 kts 295°
2026-05-08 01:55 35.93447 -121.00713 34619 ft 408 kts 295°
2026-05-08 01:56 35.94634 -121.03879 34198 ft 405 kts 295°
2026-05-08 01:56 35.95812 -121.07025 33753 ft 402 kts 295°
2026-05-08 01:56 35.96982 -121.10147 33353 ft 399 kts 295°
2026-05-08 01:56 35.98142 -121.13248 32931 ft 397 kts 295°
2026-05-08 01:57 35.99295 -121.16335 32513 ft 394 kts 295°
2026-05-08 01:57 36.00439 -121.19400 32095 ft 392 kts 295°
2026-05-08 01:57 36.01575 -121.22446 31664 ft 390 kts 295°
2026-05-08 01:57 36.02702 -121.25472 31263 ft 388 kts 295°
2026-05-08 01:58 36.03829 -121.28499 30848 ft 386 kts 295°
2026-05-08 01:58 36.04947 -121.31507 30435 ft 384 kts 295°
2026-05-08 01:58 36.06069 -121.34483 30030 ft 379 kts 299°
2026-05-08 01:58 36.07627 -121.37081 29583 ft 376 kts 318°
2026-05-08 01:59 36.09733 -121.38958 29184 ft 371 kts 328°
2026-05-08 01:59 36.11930 -121.40639 28766 ft 371 kts 329°
2026-05-08 01:59 36.14131 -121.42304 28351 ft 371 kts 329°
2026-05-08 01:59 36.16308 -121.43957 27945 ft 370 kts 328°
2026-05-08 02:00 36.18500 -121.45638 27536 ft 370 kts 328°
2026-05-08 02:00 36.20549 -121.47219 27150 ft 370 kts 328°
2026-05-08 02:00 36.21955 -121.48308 26888 ft 371 kts 328°
2026-05-08 02:00 36.23675 -121.49645 26547 ft 371 kts 328°
2026-05-08 02:01 36.25553 -121.51110 26204 ft 371 kts 328°
2026-05-08 02:01 36.27550 -121.52669 25842 ft 371 kts 328°
2026-05-08 02:01 36.29728 -121.54371 25441 ft 370 kts 328°
2026-05-08 02:01 36.31910 -121.56079 25041 ft 371 kts 328°
2026-05-08 02:02 36.34093 -121.57789 24637 ft 371 kts 328°
2026-05-08 02:02 36.36271 -121.59496 24243 ft 371 kts 328°
2026-05-08 02:02 36.38451 -121.61206 23846 ft 371 kts 328°
2026-05-08 02:02 36.40601 -121.62895 23466 ft 371 kts 328°
2026-05-08 02:03 36.42778 -121.64606 23066 ft 370 kts 328°
2026-05-08 02:03 36.44958 -121.66318 22667 ft 370 kts 328°
2026-05-08 02:03 36.47136 -121.68030 22257 ft 370 kts 328°
2026-05-08 02:03 36.49309 -121.69739 21839 ft 370 kts 328°
2026-05-08 02:04 36.51484 -121.71454 21428 ft 370 kts 328°
2026-05-08 02:04 36.53653 -121.73167 21026 ft 370 kts 328°
2026-05-08 02:04 36.55823 -121.74883 20610 ft 369 kts 328°
2026-05-08 02:04 36.57985 -121.76594 20193 ft 369 kts 328°
2026-05-08 02:05 36.60149 -121.78307 19779 ft 368 kts 328°
2026-05-08 02:05 36.62297 -121.80010 19360 ft 367 kts 328°
2026-05-08 02:05 36.64437 -121.81705 18941 ft 366 kts 328°
2026-05-08 02:05 36.66431 -121.83286 18540 ft 366 kts 328°
2026-05-08 02:06 36.68534 -121.84956 18126 ft 365 kts 328°
2026-05-08 02:06 36.70670 -121.86651 17693 ft 364 kts 328°
2026-05-08 02:06 36.72797 -121.88342 17186 ft 364 kts 327°
2026-05-08 02:06 36.74876 -121.89737 16752 ft 358 kts 340°
2026-05-08 02:07 36.76745 -121.90330 16437 ft 355 kts 349°
2026-05-08 02:07 36.78930 -121.90842 16063 ft 354 kts 348°
2026-05-08 02:07 36.80949 -121.91354 15709 ft 353 kts 348°
2026-05-08 02:07 36.83003 -121.91902 15350 ft 352 kts 347°
2026-05-08 02:08 36.85155 -121.92492 14973 ft 351 kts 347°
2026-05-08 02:08 36.87452 -121.93130 14578 ft 350 kts 347°
2026-05-08 02:08 36.89702 -121.93759 14179 ft 349 kts 347°
2026-05-08 02:08 36.92064 -121.94421 13764 ft 347 kts 347°
2026-05-08 02:09 36.94416 -121.95079 13355 ft 346 kts 347°
2026-05-08 02:09 36.96747 -121.95813 12949 ft 344 kts 343°
2026-05-08 02:09 36.99028 -121.96689 12548 ft 343 kts 341°
2026-05-08 02:09 37.01295 -121.97604 12150 ft 341 kts 341°
2026-05-08 02:10 37.03551 -121.98516 11754 ft 340 kts 341°
2026-05-08 02:10 37.05798 -121.99416 11349 ft 338 kts 341°
2026-05-08 02:10 37.08035 -122.00302 10965 ft 337 kts 341°
2026-05-08 02:10 37.10265 -122.01181 10568 ft 335 kts 341°
2026-05-08 02:11 37.12489 -122.02053 10189 ft 334 kts 341°
2026-05-08 02:11 37.14676 -122.02910 10051 ft 325 kts 341°
2026-05-08 02:11 37.16820 -122.03749 9815 ft 320 kts 341°
2026-05-08 02:11 37.18924 -122.04572 9604 ft 313 kts 341°
2026-05-08 02:12 37.20964 -122.05372 9512 ft 301 kts 341°
2026-05-08 02:12 37.22877 -122.06123 9145 ft 278 kts 341°
2026-05-08 02:12 37.24706 -122.06841 8486 ft 275 kts 341°
2026-05-08 02:12 37.26543 -122.07560 8248 ft 280 kts 341°
2026-05-08 02:13 37.28419 -122.08295 8123 ft 281 kts 341°
2026-05-08 02:13 37.30260 -122.09019 7930 ft 276 kts 341°
2026-05-08 02:13 37.32078 -122.09736 7676 ft 272 kts 341°
2026-05-08 02:13 37.33879 -122.10445 7391 ft 270 kts 341°
2026-05-08 02:14 37.35667 -122.11155 7053 ft 270 kts 341°
2026-05-08 02:14 37.37458 -122.11864 6752 ft 269 kts 341°
2026-05-08 02:14 37.39250 -122.12509 6449 ft 267 kts 343°
2026-05-08 02:14 37.41040 -122.13109 6159 ft 266 kts 343°
2026-05-08 02:15 37.42820 -122.13711 5853 ft 265 kts 343°
2026-05-08 02:15 37.44595 -122.14316 5585 ft 263 kts 343°
2026-05-08 02:15 37.46351 -122.14903 5403 ft 257 kts 343°
2026-05-08 02:15 37.48047 -122.15459 5349 ft 247 kts 343°
2026-05-08 02:16 37.49681 -122.15995 5276 ft 239 kts 343°
2026-05-08 02:16 37.51248 -122.16509 5215 ft 230 kts 343°
2026-05-08 02:16 37.52755 -122.17036 5129 ft 217 kts 336°
2026-05-08 02:16 37.53896 -122.18134 5012 ft 202 kts 305°
2026-05-08 02:17 37.54594 -122.19584 4886 ft 191 kts 298°
2026-05-08 02:17 37.55201 -122.21021 4717 ft 185 kts 297°
2026-05-08 02:17 37.55794 -122.22438 4477 ft 182 kts 297°
2026-05-08 02:17 37.56383 -122.23845 4188 ft 181 kts 298°
2026-05-08 02:18 37.56937 -122.25249 3891 ft 177 kts 288°
2026-05-08 02:18 37.56925 -122.26788 3454 ft 180 kts 256°
2026-05-08 02:18 37.56622 -122.28299 2955 ft 179 kts 260°
2026-05-08 02:18 37.56362 -122.29847 2454 ft 183 kts 261°
2026-05-08 02:19 37.56100 -122.31397 2214 ft 178 kts 260°
2026-05-08 02:19 37.55755 -122.32816 1939 ft 163 kts 245°
2026-05-08 02:19 37.55257 -122.33848 1923 ft 143 kts 241°
2026-05-08 02:19 37.54740 -122.34844 1846 ft 128 kts 239°
2026-05-08 02:20 37.54136 -122.35660 1818 ft 132 kts 228°
2026-05-08 02:20 37.53455 -122.36441 1817 ft 131 kts 226°
2026-05-08 02:20 37.52753 -122.37153 1810 ft 130 kts 224°
2026-05-08 02:20 37.52039 -122.37865 1951 ft 130 kts 224°
2026-05-08 02:21 37.51316 -122.38573 2367 ft 135 kts 224°
2026-05-08 02:21 37.50556 -122.39334 2823 ft 141 kts 223°
2026-05-08 02:21 37.49762 -122.40107 2993 ft 150 kts 211°
2026-05-08 02:21 37.48774 -122.40488 3030 ft 150 kts 200°
2026-05-08 02:22 37.47784 -122.40882 3016 ft 148 kts 202°
2026-05-08 02:22 37.46804 -122.41289 3031 ft 149 kts 202°
2026-05-08 02:22 37.45824 -122.41695 3020 ft 147 kts 202°
2026-05-08 02:22 37.44887 -122.42146 3004 ft 141 kts 216°
2026-05-08 02:23 37.44341 -122.43108 3020 ft 137 kts 265°
2026-05-08 02:23 37.44624 -122.44190 3022 ft 134 kts 316°
2026-05-08 02:23 37.45482 -122.44514 3028 ft 135 kts
2026-05-08 02:23 37.46415 -122.44341 3030 ft 136 kts
2026-05-08 02:24 37.47371 -122.44216 3031 ft 140 kts
2026-05-08 02:24 37.48344 -122.44088 3025 ft 141 kts
2026-05-08 02:24 37.49293 -122.43957 2993 ft 134 kts
2026-05-08 02:24 37.50222 -122.43832 3022 ft 135 kts
2026-05-08 02:25 37.51170 -122.43702 2954 ft 140 kts
2026-05-08 02:25 37.52124 -122.43400 2722 ft 139 kts 18°
2026-05-08 02:25 37.52974 -122.42871 2457 ft 132 kts 24°
2026-05-08 02:25 37.53829 -122.42384 2291 ft 140 kts 22°
2026-05-08 02:26 37.54712 -122.41880 2105 ft 138 kts 25°
2026-05-08 02:26 37.55558 -122.41364 1884 ft 134 kts 23°
2026-05-08 02:26 37.56395 -122.40810 1636 ft 141 kts 25°
2026-05-08 02:26 37.57255 -122.40167 1425 ft 143 kts 21°
2026-05-08 02:27 37.58165 -122.39615 1088 ft 147 kts 19°
2026-05-08 02:27 37.59053 -122.39082 592 ft 136 kts 17°
2026-05-08 02:27 37.59896 -122.38574 315 ft 134 kts 18°
2026-05-08 02:27 37.60730 -122.38033 69 ft 131 kts 24°
2026-05-08 02:28 37.61473 -122.37539 27 ft 102 kts 27°
2026-05-08 02:28 37.61819 -122.37314 26 ft 31 kts 27°
2026-05-08 02:28 37.62062 -122.37162 26 ft 27 kts 17°
2026-05-08 02:28 37.62140 -122.37217 26 ft 27 kts 295°
2026-05-08 02:29 37.62226 -122.37422 26 ft 26 kts 298°
2026-05-08 02:29 37.62202 -122.37596 26 ft 22 kts 229°
2026-05-08 02:29 37.62071 -122.37786 26 ft 22 kts 229°
2026-05-08 02:29 37.62019 -122.37860 26 ft 22 kts 229°
2026-05-08 02:30 37.61934 -122.37973 26 ft 9 kts 217°
2026-05-08 02:30 37.61896 -122.37991 26 ft 9 kts 189°
2026-05-08 02:30 37.61835 -122.37975 26 ft 9 kts 158°
2026-05-08 02:30 37.61765 -122.37949 26 ft 16 kts 171°
2026-05-08 02:31 37.61656 -122.37971 26 ft 17 kts 201°
2026-05-08 02:31 37.61557 -122.38036 26 ft 17 kts 208°
2026-05-08 02:31 37.61455 -122.38104 26 ft 17 kts 208°
2026-05-08 02:31 37.61353 -122.38171 26 ft 17 kts 207°
2026-05-08 02:32 37.61250 -122.38239 26 ft 17 kts 208°
2026-05-08 02:32 37.61148 -122.38307 26 ft 17 kts 208°
2026-05-08 02:32 37.61046 -122.38376 26 ft 17 kts 210°
2026-05-08 02:32 37.60951 -122.38457 26 ft 14 kts 216°
2026-05-08 02:33 37.60866 -122.38502 26 ft 14 kts 182°
2026-05-08 02:33 37.60807 -122.38566 26 ft 14 kts 280°
2026-05-08 02:33 37.60845 -122.38676 25 ft 14 kts 297°
2026-05-08 02:33 37.60895 -122.38794 26 ft 14 kts 298°
2026-05-08 02:34 37.60939 -122.38892 26 ft 14 kts 303°
2026-05-08 02:34 37.61021 -122.38909 26 ft 14 kts 23°
2026-05-08 02:34 37.61109 -122.38855 26 ft 14 kts 27°
2026-05-08 02:34 37.61196 -122.38797 26 ft 14 kts 28°
2026-05-08 02:35 37.61276 -122.38742 26 ft 7 kts 27°
2026-05-08 02:35 37.61319 -122.38755 26 ft 7 kts 319°
2026-05-08 02:35 37.61344 -122.38801 26 ft 0 kts 300°
2026-05-08 02:35 37.61348 -122.38811 26 ft 2 kts 299°
2026-05-08 02:36 37.61351 -122.38819 26 ft 0 kts 299°